Other Surface Observations
Issued by NWS Charleston, SC

Home | Current Version | Previous Version | Text Only | Print | Product List | Glossary On
Versions: 1 2 3 4 5 6 7 8 9 10 11 12 13 14 15 16 17 18 19 20 21 22 23 24 25 26 27 28 29 30 31 32 33 34 35 36 37 38 39 40 41 42 43 44 45 46 47 48 49 50
000
SXUS52 KCHS 191925
OSOCHS

MARINE OBSERVATIONS
NATIONAL WEATHER SERVICE CHARLESTON SC
300 PM EDT FRI SEP 19 2014

...DOWNTOWN CHARLESTON AND HARBOR...

CITY           SKY/WX    TMP DP  RH WIND       PRES   REMARKS
WATERFRONT PRK   N/A     81 N/A N/A E23         N/A
FORT JOHNSON   NOT AVBL

...LAKE MOULTRIE...

CITY           SKY/WX    TMP DP  RH WIND       PRES   REMARKS
PINOPOLIS        N/A     77  72  83 SE2       29.99F

...LAKE AND SUPPLEMENTAL COASTAL OBSERVATIONS...

STATION/POSITION TIME  TEMP    WIND        PRES    WAVE   SWELL
                       AIR SEA DIR/SP/G            HT/PER HT/PER/DIR
                 (UTC) (F)     (DEG/KT/KT) (MB)    (FT/S) (FT/S/D)
FORT PULASKI     1900   80      60/ 15/ 17 1017.1S
SAPELO ISLAND    1800   84      70/  8     1017.0S
UPR LAKE MARION  NOT AVBL
WINYAH BAY       1800   79      60/ 15     1018.0S
LAKE MURRAY      1800   74      20/  2/  3 1019.0F
ACE BASIN NERRS  1800   84     100/  6     1018.0S


...C-MAN AND BUOY OBSERVATIONS...

STATION/POSITION TIME  TEMP    WIND        PRES    WAVE   SWELL
                       AIR SEA DIR/SP/G            HT/PER HT/PER/DIR
                 (UTC) (F)     (DEG/KT/KT) (MB)    (FT/S) (FT/S/D)
BUOY 41004       1900   78 82   90/ 23/ 27 1016.6F   5/ 6   2/ 9
BUOY 41008       1900   80 84   60/ 19/ 25 1015.9F   3/10   2/100/10
FOLLY BEACH CMAN 1900   78      90/ 21/ 23 1017.9F
CAPERS NS BUOY   1800   77     130/ 23/ 25   N/A
FRIPP NS BUOY    NOT AVBL
5E ST. MARYS GA  1900      84                N/A     2/10
FRYING PAN BUOY  NOT AVBL
BUOY 41025       1900   78      60/ 17/ 21 1020.8F   5/ 7   2/ 50/10
CAPE LOOKOUT NC  1900   76      40/ 21/ 25 1020.6F
BUOY 41002       1837   79 82   70/ 14/ 17 1017.8F   4/ 5   2/ 90/ 8
BUOY 41010       1900   83 85   70/ 12/ 14 1014.2F   3/11   2/ 50/11
BUOY 41012       NOT AVBL
ST AUGUSTINE FL  1900   81     120/ 10/ 11 1015.9F


$$



USA.gov is the U.S. government's official web portal to all federal, state and local government web resources and services.